AWW61QH EGFF-EICK

Flight info

Callsign AWW61QH
Flight time 0h 42m
Altitude 30000
Route BCN P4 FELCA DCT NICXI DCT OFSOX DCT BANBA DCT VAPAL VAPAL1R
Aircraft A320/M-SDE3FGHIRWY/LB1

Departure

Time 2026-04-28 13:44
Airport Cardiff International Airport (EGFF)

Arrival

Time 2026-04-28 14:26
Airport Cork International Airport (EICK)
Time Latitude Longitude Altitude Speed Heading
2026-04-28 13:16 51.39913 -3.34164 223 ft 0 kts 118°
2026-04-28 13:35 51.39919 -3.34181 221 ft 3 kts 125°
2026-04-28 13:35 51.39932 -3.34204 222 ft 3 kts 151°
2026-04-28 13:35 51.39949 -3.34213 224 ft 3 kts 189°
2026-04-28 13:35 51.39961 -3.34208 223 ft 1 kts 207°
2026-04-28 13:36 51.39963 -3.34206 223 ft 0 kts 207°
2026-04-28 13:39 51.39961 -3.34208 223 ft 0 kts 207°
2026-04-28 13:39 51.39955 -3.34212 222 ft 2 kts 206°
2026-04-28 13:39 51.39878 -3.34274 223 ft 18 kts 206°
2026-04-28 13:39 51.39875 -3.34421 225 ft 14 kts 298°
2026-04-28 13:40 51.39917 -3.34553 224 ft 13 kts 296°
2026-04-28 13:40 51.39960 -3.34695 221 ft 15 kts 296°
2026-04-28 13:40 51.40007 -3.34847 219 ft 15 kts 296°
2026-04-28 13:40 51.40057 -3.34998 221 ft 16 kts 297°
2026-04-28 13:41 51.40102 -3.35141 220 ft 13 kts 297°
2026-04-28 13:41 51.40140 -3.35260 218 ft 11 kts 296°
2026-04-28 13:41 51.40154 -3.35380 217 ft 11 kts 265°
2026-04-28 13:41 51.40141 -3.35438 217 ft 0 kts 240°
2026-04-28 13:42 51.40141 -3.35439 217 ft 1 kts 240°
2026-04-28 13:42 51.40127 -3.35468 219 ft 8 kts 228°
2026-04-28 13:43 51.40034 -3.35509 221 ft 11 kts 126°
2026-04-28 13:43 51.40019 -3.35466 216 ft 0 kts 117°
2026-04-28 13:43 51.40013 -3.35447 219 ft 11 kts 117°
2026-04-28 13:43 51.39854 -3.34935 218 ft 87 kts 117°
2026-04-28 13:44 51.39489 -3.33790 228 ft 140 kts 114°
2026-04-28 13:44 51.39052 -3.32414 897 ft 134 kts 109°
2026-04-28 13:44 51.38654 -3.31113 1669 ft 127 kts 107°
2026-04-28 13:44 51.38276 -3.29851 2243 ft 129 kts 107°
2026-04-28 13:45 51.37862 -3.28460 2587 ft 150 kts 108°
2026-04-28 13:45 51.37378 -3.26839 2899 ft 171 kts 109°
2026-04-28 13:45 51.36828 -3.25005 3195 ft 196 kts 110°
2026-04-28 13:45 51.36196 -3.22912 3574 ft 221 kts 111°
2026-04-28 13:46 51.35501 -3.20576 4127 ft 240 kts 108°
2026-04-28 13:46 51.35250 -3.17954 4994 ft 243 kts 82°
2026-04-28 13:46 51.35810 -3.15421 5896 ft 247 kts 60°
2026-04-28 13:46 51.36722 -3.13105 6228 ft 251 kts 53°
2026-04-28 13:47 51.38127 -3.11454 6320 ft 258 kts 21°
2026-04-28 13:47 51.39958 -3.11379 6333 ft 268 kts 352°
2026-04-28 13:47 51.41756 -3.12094 6414 ft 274 kts 349°
2026-04-28 13:47 51.43601 -3.12897 7339 ft 274 kts 349°
2026-04-28 13:48 51.45440 -3.13748 8312 ft 276 kts 349°
2026-04-28 13:48 51.47284 -3.14619 9258 ft 278 kts 349°
2026-04-28 13:48 51.49171 -3.15506 10213 ft 279 kts 350°
2026-04-28 13:48 51.51053 -3.16379 10716 ft 296 kts 350°
2026-04-28 13:49 51.53131 -3.17327 11105 ft 314 kts 350°
2026-04-28 13:49 51.55248 -3.18300 11828 ft 319 kts 351°
2026-04-28 13:49 51.57390 -3.19289 12609 ft 322 kts 351°
2026-04-28 13:49 51.59519 -3.20272 13426 ft 324 kts 351°
2026-04-28 13:50 51.61697 -3.21275 14264 ft 327 kts 352°
2026-04-28 13:50 51.63892 -3.22287 14950 ft 330 kts 352°
2026-04-28 13:50 51.66107 -3.23307 15662 ft 333 kts 352°
2026-04-28 13:50 51.68345 -3.24337 16371 ft 336 kts 352°
2026-04-28 13:51 51.70555 -3.25721 17054 ft 348 kts 340°
2026-04-28 13:51 51.72618 -3.28015 17705 ft 365 kts 326°
2026-04-28 13:51 51.74321 -3.31160 18354 ft 381 kts 311°
2026-04-28 13:51 51.75677 -3.34826 18950 ft 388 kts 308°
2026-04-28 13:52 51.77038 -3.38601 19488 ft 391 kts 308°
2026-04-28 13:52 51.78412 -3.42406 20075 ft 392 kts 308°
2026-04-28 13:52 51.79791 -3.46226 20683 ft 395 kts 309°
2026-04-28 13:52 51.81179 -3.50076 21267 ft 398 kts 309°
2026-04-28 13:53 51.82398 -3.54168 21838 ft 411 kts 299°
2026-04-28 13:53 51.83187 -3.58688 22393 ft 424 kts 289°
2026-04-28 13:53 51.83788 -3.63370 22948 ft 428 kts 290°
2026-04-28 13:53 51.84394 -3.68098 23493 ft 431 kts 290°
2026-04-28 13:54 51.85006 -3.72869 24040 ft 435 kts 290°
2026-04-28 13:54 51.85620 -3.77670 24464 ft 438 kts 290°
2026-04-28 13:54 51.86244 -3.82521 24879 ft 442 kts 290°
2026-04-28 13:54 51.86872 -3.87406 25280 ft 446 kts 290°
2026-04-28 13:55 51.87502 -3.92337 25676 ft 449 kts 290°
2026-04-28 13:55 51.88129 -3.97287 26128 ft 450 kts 290°
2026-04-28 13:55 51.88757 -4.02272 26528 ft 453 kts 290°
2026-04-28 13:55 51.89389 -4.07291 26907 ft 457 kts 290°
2026-04-28 13:56 51.90025 -4.12350 27275 ft 460 kts 290°
2026-04-28 13:56 51.90667 -4.17439 27635 ft 464 kts 290°
2026-04-28 13:56 51.91312 -4.22576 27988 ft 467 kts 290°
2026-04-28 13:56 51.91956 -4.27748 28353 ft 470 kts 290°
2026-04-28 13:57 51.92603 -4.32967 28706 ft 474 kts 290°
2026-04-28 13:57 51.93249 -4.38219 29056 ft 477 kts 289°
2026-04-28 13:57 51.93894 -4.43504 29384 ft 479 kts 289°
2026-04-28 13:57 51.94536 -4.48805 29754 ft 481 kts 289°
2026-04-28 13:58 51.95182 -4.54143 30085 ft 484 kts 289°
2026-04-28 13:58 51.95831 -4.59511 30289 ft 486 kts 288°
2026-04-28 13:58 51.97097 -4.70034 30371 ft 461 kts 289°
2026-04-28 13:59 51.98290 -4.80106 30371 ft 452 kts 289°
2026-04-28 13:59 51.99488 -4.90109 30373 ft 451 kts 289°
2026-04-28 14:00 52.00660 -4.99992 30386 ft 447 kts 288°
2026-04-28 14:00 52.01817 -5.09909 30385 ft 447 kts 288°
2026-04-28 14:01 52.02711 -5.19932 30384 ft 456 kts 277°
2026-04-28 14:01 52.02185 -5.30283 30379 ft 462 kts 269°
2026-04-28 14:02 52.01460 -5.40651 30376 ft 462 kts 269°
2026-04-28 14:02 52.00731 -5.51018 30378 ft 462 kts 269°
2026-04-28 14:03 51.99991 -5.61381 30378 ft 462 kts 269°
2026-04-28 14:03 51.99232 -5.71747 30383 ft 462 kts 269°
2026-04-28 14:04 51.98467 -5.82100 30386 ft 462 kts 268°
2026-04-28 14:04 51.97691 -5.92440 30381 ft 460 kts 268°
2026-04-28 14:05 51.96914 -6.02715 30395 ft 458 kts 268°
2026-04-28 14:05 51.96128 -6.12961 30402 ft 458 kts 268°
2026-04-28 14:06 51.95333 -6.23168 30054 ft 454 kts 268°
2026-04-28 14:06 51.94992 -6.28249 29509 ft 450 kts 270°
2026-04-28 14:06 51.94751 -6.33273 29064 ft 444 kts 272°
2026-04-28 14:07 51.94576 -6.38227 28605 ft 437 kts 272°
2026-04-28 14:07 51.94427 -6.43117 28202 ft 432 kts 272°
2026-04-28 14:07 51.94274 -6.47954 27768 ft 428 kts 272°
2026-04-28 14:07 51.94101 -6.52750 27344 ft 425 kts 272°
2026-04-28 14:08 51.93909 -6.57505 26909 ft 421 kts 271°
2026-04-28 14:08 51.93703 -6.62222 26480 ft 418 kts 271°
2026-04-28 14:08 51.93491 -6.66909 26043 ft 415 kts 271°
2026-04-28 14:08 51.93279 -6.71555 25599 ft 413 kts 271°
2026-04-28 14:09 51.93071 -6.76117 25159 ft 411 kts 271°
2026-04-28 14:09 51.92865 -6.80724 24694 ft 409 kts 271°
2026-04-28 14:09 51.92660 -6.85316 24221 ft 407 kts 271°
2026-04-28 14:09 51.92456 -6.89876 23732 ft 405 kts 271°
2026-04-28 14:10 51.92249 -6.94412 23259 ft 402 kts 271°
2026-04-28 14:10 51.92042 -6.98903 22811 ft 398 kts 271°
2026-04-28 14:10 51.91833 -7.03357 22365 ft 395 kts 270°
2026-04-28 14:10 51.91624 -7.07779 21929 ft 392 kts 270°
2026-04-28 14:11 51.91416 -7.12171 21498 ft 390 kts 270°
2026-04-28 14:11 51.91208 -7.16531 21067 ft 387 kts 270°
2026-04-28 14:11 51.90998 -7.20865 20641 ft 385 kts 270°
2026-04-28 14:11 51.90788 -7.25181 20214 ft 383 kts 270°
2026-04-28 14:12 51.90577 -7.29472 19794 ft 382 kts 270°
2026-04-28 14:12 51.90366 -7.33748 19352 ft 380 kts 270°
2026-04-28 14:12 51.90153 -7.37997 18960 ft 378 kts 270°
2026-04-28 14:12 51.89940 -7.42238 18525 ft 377 kts 270°
2026-04-28 14:13 51.89729 -7.46450 18092 ft 374 kts 269°
2026-04-28 14:13 51.89519 -7.50627 17701 ft 371 kts 269°
2026-04-28 14:13 51.89307 -7.54776 17291 ft 368 kts 269°
2026-04-28 14:13 51.89094 -7.58891 16899 ft 366 kts 269°
2026-04-28 14:14 51.88883 -7.62977 16506 ft 363 kts 269°
2026-04-28 14:14 51.88670 -7.67044 16120 ft 361 kts 269°
2026-04-28 14:14 51.88455 -7.71079 15739 ft 359 kts 269°
2026-04-28 14:14 51.88240 -7.75094 15352 ft 357 kts 268°
2026-04-28 14:15 51.88122 -7.79086 14977 ft 352 kts 277°
2026-04-28 14:15 51.88486 -7.82952 14585 ft 344 kts 290°
2026-04-28 14:15 51.89320 -7.86524 14242 ft 336 kts 302°
2026-04-28 14:15 51.90407 -7.89786 13858 ft 332 kts 303°
2026-04-28 14:16 51.91497 -7.93066 13493 ft 329 kts 303°
2026-04-28 14:16 51.92570 -7.96324 13131 ft 327 kts 303°
2026-04-28 14:16 51.93630 -7.99562 12767 ft 324 kts 303°
2026-04-28 14:16 51.94680 -8.02773 12407 ft 321 kts 302°
2026-04-28 14:17 51.95722 -8.05956 12038 ft 319 kts 302°
2026-04-28 14:17 51.96758 -8.09126 11675 ft 317 kts 302°
2026-04-28 14:17 51.97787 -8.12275 11315 ft 315 kts 302°
2026-04-28 14:17 51.98811 -8.15405 10933 ft 314 kts 302°
2026-04-28 14:18 51.99828 -8.18522 10560 ft 312 kts 302°
2026-04-28 14:18 52.00838 -8.21625 10172 ft 310 kts 302°
2026-04-28 14:18 52.01841 -8.24711 9766 ft 308 kts 302°
2026-04-28 14:18 52.02839 -8.27773 9382 ft 306 kts 302°
2026-04-28 14:19 52.03830 -8.30811 8986 ft 303 kts 302°
2026-04-28 14:19 52.04812 -8.33830 8594 ft 301 kts 301°
2026-04-28 14:19 52.05785 -8.36828 8197 ft 299 kts 301°
2026-04-28 14:19 52.06751 -8.39805 7792 ft 297 kts 301°
2026-04-28 14:20 52.07712 -8.42767 7388 ft 295 kts 301°
2026-04-28 14:20 52.08341 -8.44721 7168 ft 293 kts 299°
2026-04-28 14:20 52.08921 -8.47862 6893 ft 290 kts 281°
2026-04-28 14:20 52.09207 -8.51069 6599 ft 284 kts 280°
2026-04-28 14:21 52.09469 -8.54220 6323 ft 278 kts 280°
2026-04-28 14:21 52.09680 -8.57319 6036 ft 274 kts 271°
2026-04-28 14:21 52.09165 -8.60233 5761 ft 269 kts 234°
2026-04-28 14:21 52.07759 -8.62090 5463 ft 260 kts 199°
2026-04-28 14:22 52.05992 -8.62309 4939 ft 256 kts 162°
2026-04-28 14:22 52.04340 -8.61400 4628 ft 247 kts 150°
2026-04-28 14:22 52.02780 -8.60252 4235 ft 246 kts 152°
2026-04-28 14:22 52.01192 -8.59245 3893 ft 243 kts 156°
2026-04-28 14:23 51.99613 -8.58307 3575 ft 240 kts 156°
2026-04-28 14:23 51.98052 -8.57382 3241 ft 238 kts 156°
2026-04-28 14:23 51.96529 -8.56478 2922 ft 224 kts 155°
2026-04-28 14:23 51.95131 -8.55650 2629 ft 206 kts 154°
2026-04-28 14:24 51.93815 -8.54865 2362 ft 198 kts 154°
2026-04-28 14:24 51.92536 -8.54103 2117 ft 192 kts 155°
2026-04-28 14:24 51.91324 -8.53384 1851 ft 179 kts 155°
2026-04-28 14:24 51.90195 -8.52714 1598 ft 166 kts 155°
2026-04-28 14:25 51.89154 -8.52097 1380 ft 153 kts 154°
2026-04-28 14:25 51.88192 -8.51526 1181 ft 143 kts 153°
2026-04-28 14:25 51.87286 -8.50990 1026 ft 133 kts 150°
2026-04-28 14:25 51.86424 -8.50481 850 ft 129 kts 153°
2026-04-28 14:26 51.85599 -8.49986 666 ft 129 kts 154°
2026-04-28 14:26 51.84770 -8.49491 505 ft 125 kts 153°
2026-04-28 14:26 51.84143 -8.49117 474 ft 55 kts 160°
2026-04-28 14:26 51.83937 -8.48968 472 ft 18 kts 148°
2026-04-28 14:27 51.83902 -8.48979 469 ft 0 kts 269°
2026-04-28 14:27 51.83962 -8.49025 469 ft 25 kts 345°
2026-04-28 14:27 51.84125 -8.49107 478 ft 16 kts 340°
2026-04-28 14:27 51.84216 -8.49161 473 ft 12 kts 340°
2026-04-28 14:28 51.84282 -8.49188 474 ft 7 kts 18°
2026-04-28 14:28 51.84311 -8.49140 481 ft 5 kts 57°
2026-04-28 14:28 51.84347 -8.49023 484 ft 19 kts 64°
2026-04-28 14:28 51.84444 -8.49012 489 ft 19 kts 339°
2026-04-28 14:29 51.84574 -8.49087 494 ft 19 kts 341°
2026-04-28 14:29 51.84684 -8.49154 502 ft 14 kts 338°
2026-04-28 14:29 51.84773 -8.49202 503 ft 13 kts 349°
2026-04-28 14:29 51.84822 -8.49216 502 ft 0 kts 349°
2026-04-28 14:30 51.84822 -8.49217 502 ft 1 kts 349°
2026-04-28 14:30 51.84858 -8.49209 503 ft 6 kts 34°
2026-04-28 14:30 51.84878 -8.49156 503 ft 5 kts 70°
2026-04-28 14:30 51.84887 -8.49107 503 ft 0 kts 70°
2026-04-28 14:31 51.84889 -8.49100 503 ft 2 kts 70°
2026-04-28 14:31 51.84893 -8.49084 503 ft 1 kts 70°
2026-04-28 14:31 51.84894 -8.49078 503 ft 0 kts 70°